(83512) = 2001 SU128

Discovered at Socorro on 2001-09-16 by LINEAR.

Orbit

Orbit type: Main Belt

Note: WebGL enabled browser required.

epoch2024-03-31.0
epoch JD2460400.5
perihelion date2026-07-25.60956
perihelion JD2461247.10956
argument of perihelion (°)64.50284
ascending node (°)199.52012
inclination (°)10.44679
eccentricity0.0696991
perihelion distance (AU)2.7979363
Tisserand w.r.t. Jupiter3.2
ΔV w.r.t. Earth (km/sec)10.9
semimajor axis (AU)3.0075606
mean anomaly (°)200.02009
mean daily motion (°/day)0.18896540
aphelion distance (AU)3.217
period (years)5.22
P-vector [x]-0.10912937
P-vector [y]-0.96465738
P-vector [z]-0.23984771
Q-vector [x]0.99217944
Q-vector [y]-0.12041477
Q-vector [z]0.03286703
absolute magnitude14.5
phase slope0.15
uncertainty0
referenceMPEC 2024-C163
observations used1280
oppositions22
arc length (days)11791
first opposition used1991
last opposition used2024
residual rms (arc-secs)0.68
perturbers coarse indicatorM-v
perturbers precise indicator003Ek
first observation date used1991-11-01.0
last observation date used2024-02-12.0
computer nameMPCLINUX
JD of orbit computation2456700.293562
perihelion JD uncertainty (days)2.2780E-04
argument of perihelion uncertainty (°)4.9388E-05
ascending node uncertainty (°)2.5961E-05
inclination uncertainty (°)5.7051E-06
eccentricity uncertainty 4.8841E-08
perihelion distance uncertainty (AU)1.5634E-07
Minimum Orbit Intersection Distances (in AU)
for orbit epoch: 2460400.5, reference: E2024-FA5
Mercury2.34497
Venus2.08468
Earth1.80281
Mars1.27465
Jupiter1.83036
Saturn5.87715
Uranus15.4207
Neptune26.6679

Observations

1298 total observations over interval: 1991 11 01.31374 – 2024 02 12.332396
These data are available for download (format description).

Date (UT) J2000 RA J2000 Dec Magn Location Ref
1991 11 01.31374 02 14 51.42 +09 09 36.7 20.2 V 691 – Steward Observatory, Kitt Peak-Spacewatch MPS 78101
1991 11 01.33460 02 14 50.43 +09 09 28.5 20.6 V 691 – Steward Observatory, Kitt Peak-Spacewatch MPS 78101
1991 11 01.35522 02 14 49.49 +09 09 20.5 20.1 V 691 – Steward Observatory, Kitt Peak-Spacewatch MPS 78101
1996 10 12.45944 01 07 18.94 +07 34 48.2 18.6 V 566 – Haleakala-NEAT/GEODSS MPS 40554
1996 10 12.46785 01 07 18.57 +07 34 43.3 18.8 V 566 – Haleakala-NEAT/GEODSS MPS 40554
1996 10 12.47771 01 07 18.18 +07 34 39.1 19.2 V 566 – Haleakala-NEAT/GEODSS MPS 40554
2000 06 04.27266 17 53 48.53 -09 04 33.3 18.7   704 – Lincoln Laboratory ETS, New Mexico MPS 40554
2000 06 04.28662 17 53 47.98 -09 04 30.2 18.6   704 – Lincoln Laboratory ETS, New Mexico MPS 40554
2000 06 04.30028 17 53 47.28 -09 04 28.3 18.5   704 – Lincoln Laboratory ETS, New Mexico MPS 40554
2000 06 04.31468 17 53 46.59 -09 04 24.8 18.8   704 – Lincoln Laboratory ETS, New Mexico MPS 40554
2000 06 04.32780 17 53 45.96 -09 04 22.9 18.5   704 – Lincoln Laboratory ETS, New Mexico MPS 40554
2001 08 17.34323 00 16 45.57 +08 44 20.2 19.5   704 – Lincoln Laboratory ETS, New Mexico MPS 40554
2001 08 17.36741 00 16 45.07 +08 44 16.9 20.0   704 – Lincoln Laboratory ETS, New Mexico MPS 40554
2001 08 17.39167 00 16 44.57 +08 44 11.4 19.9   704 – Lincoln Laboratory ETS, New Mexico MPS 40554
2001 08 27.33033 00 12 53.73 +08 06 28.5 18.7 R 699 – Lowell Observatory-LONEOS MPS 40554
2001 08 27.34988 00 12 53.11 +08 06 24.7   699 – Lowell Observatory-LONEOS MPS 40554
2001 08 27.36950 00 12 52.52 +08 06 18.7   699 – Lowell Observatory-LONEOS MPS 40554
2001 08 27.38910 00 12 51.92 +08 06 12.6   699 – Lowell Observatory-LONEOS MPS 40554
2001 09 08.19994 00 06 15.04 +07 00 46.1 19.0   704 – Lincoln Laboratory ETS, New Mexico MPS 40554
2001 09 08.21368 00 06 14.47 +07 00 39.4 19.6   704 – Lincoln Laboratory ETS, New Mexico MPS 40554
2001 09 08.22739 00 06 13.87 +07 00 35.2 19.5   704 – Lincoln Laboratory ETS, New Mexico MPS 40554
2001 09 08.24103 00 06 13.45 +07 00 29.2 19.5   704 – Lincoln Laboratory ETS, New Mexico MPS 40554
2001 09 08.25468 00 06 12.85 +07 00 23.8 19.4   704 – Lincoln Laboratory ETS, New Mexico MPS 40554
2001 09 10.36740 00 04 51.05 +06 46 37.5 18.4 R 699 – Lowell Observatory-LONEOS MPS 40554
2001 09 10.39488 00 04 49.91 +06 46 27.2   699 – Lowell Observatory-LONEOS MPS 40554
2001 09 10.42241 00 04 48.75 +06 46 16.8   699 – Lowell Observatory-LONEOS MPS 40554
2001 09 10.45003 00 04 47.69 +06 46 04.7   699 – Lowell Observatory-LONEOS MPS 40554
2001 09 16.36165 00 00 48.29 +06 04 55.1 18.3   704 – Lincoln Laboratory ETS, New Mexico MPS 36658
2001 09 16.39034 00 00 47.10 +06 04 43.0 19.1   704 – Lincoln Laboratory ETS, New Mexico MPS 36658
2001 09 16.39068 00 00 47.09 +06 04 42.8 18.8   704 – Lincoln Laboratory ETS, New Mexico MPS 36658
2001 09 16.40469 00 00 46.46 +06 04 36.3 19.0   704 – Lincoln Laboratory ETS, New Mexico MPS 36658
2001 09 16.40503 00 00 46.50 +06 04 36.7 19.1   704 – Lincoln Laboratory ETS, New Mexico MPS 36658
2001 09 16.41922 00 00 45.84 +06 04 30.0 18.8   704 – Lincoln Laboratory ETS, New Mexico MPS 36658
2001 09 16.41955 00 00 45.86 +06 04 30.4 18.8   704 – Lincoln Laboratory ETS, New Mexico MPS 36658
2001 09 18.18732 23 59 32.44 +05 51 33.1 18.4 R 699 – Lowell Observatory-LONEOS MPS 40554
2001 09 18.21084 23 59 31.40 +05 51 22.3   699 – Lowell Observatory-LONEOS MPS 40554
2001 09 18.23449 23 59 30.39 +05 51 12.1   699 – Lowell Observatory-LONEOS MPS 40554
2001 09 18.25789 23 59 29.39 +05 51 01.4   699 – Lowell Observatory-LONEOS MPS 40554
2001 09 20.25353 23 58 05.59 +05 36 08.2 18.4   704 – Lincoln Laboratory ETS, New Mexico MPS 36658
2001 09 20.26927 23 58 04.90 +05 36 01.2 18.3   704 – Lincoln Laboratory ETS, New Mexico MPS 36658
2001 09 20.28361 23 58 04.28 +05 35 54.7 18.6   704 – Lincoln Laboratory ETS, New Mexico MPS 36658
2001 09 20.29953 23 58 03.60 +05 35 47.4 18.8   704 – Lincoln Laboratory ETS, New Mexico MPS 36658
2001 09 20.31370 23 58 03.00 +05 35 40.6 19.0   704 – Lincoln Laboratory ETS, New Mexico MPS 36658
2001 09 21.31838 23 57 20.70 +05 28 05.0 18.3   644 – Palomar Mountain/NEAT MPS 36658
2001 09 21.33985 23 57 19.75 +05 27 55.2 18.2   644 – Palomar Mountain/NEAT MPS 36658
2001 09 21.36125 23 57 18.83 +05 27 45.4 18.1   644 – Palomar Mountain/NEAT MPS 36658
2001 09 22.25948 23 56 41.24 +05 20 55.1 18.7   704 – Lincoln Laboratory ETS, New Mexico MPS 40554
2001 09 22.27446 23 56 40.57 +05 20 48.2 18.9   704 – Lincoln Laboratory ETS, New Mexico MPS 40554
2001 09 22.28869 23 56 39.90 +05 20 42.4 19.1   704 – Lincoln Laboratory ETS, New Mexico MPS 40554
2001 09 22.30303 23 56 39.27 +05 20 35.9 18.7   704 – Lincoln Laboratory ETS, New Mexico MPS 40554
2001 09 23.25203 23 55 59.55 +05 13 18.7 18.8   704 – Lincoln Laboratory ETS, New Mexico MPS 43931
2001 09 23.26715 23 55 58.92 +05 13 11.2 19.0   704 – Lincoln Laboratory ETS, New Mexico MPS 43931
2001 09 23.28135 23 55 58.35 +05 13 04.7 18.7   704 – Lincoln Laboratory ETS, New Mexico MPS 43931
2001 09 23.29680 23 55 57.65 +05 12 57.7 18.6   704 – Lincoln Laboratory ETS, New Mexico MPS 43931
2001 09 23.31099 23 55 56.99 +05 12 51.0 18.5   704 – Lincoln Laboratory ETS, New Mexico MPS 43931
2001 10 05.29651 23 47 53.90 +03 39 56.5 19.0   644 – Palomar Mountain/NEAT MPS 38207
2001 10 05.31747 23 47 53.10 +03 39 46.8 19.1   644 – Palomar Mountain/NEAT MPS 38207
2001 10 05.33829 23 47 52.29 +03 39 37.3 18.8   644 – Palomar Mountain/NEAT MPS 38207
2001 10 14.17262 23 42 49.10 +02 34 04.1 19.4   704 – Lincoln Laboratory ETS, New Mexico MPS 38207
2001 10 14.18835 23 42 48.65 +02 33 55.5 19.4   704 – Lincoln Laboratory ETS, New Mexico MPS 38207
2001 10 14.20407 23 42 48.07 +02 33 49.9 19.6   704 – Lincoln Laboratory ETS, New Mexico MPS 38207
2001 10 14.21983 23 42 47.54 +02 33 42.7 19.6   704 – Lincoln Laboratory ETS, New Mexico MPS 38207
2001 10 14.23560 23 42 47.12 +02 33 37.1 19.8   704 – Lincoln Laboratory ETS, New Mexico MPS 38207
2001 10 16.24208 23 41 47.58 +02 19 35.4 19.1   704 – Lincoln Laboratory ETS, New Mexico MPS 38207
2001 10 16.25780 23 41 47.14 +02 19 28.2 19.4   704 – Lincoln Laboratory ETS, New Mexico MPS 38207
2001 10 16.27352 23 41 46.65 +02 19 21.1 19.3   704 – Lincoln Laboratory ETS, New Mexico MPS 38207
2001 10 16.28924 23 41 46.19 +02 19 15.1 19.6   704 – Lincoln Laboratory ETS, New Mexico MPS 38207
2001 10 16.30499 23 41 45.74 +02 19 08.5 19.0   704 – Lincoln Laboratory ETS, New Mexico MPS 38207
2001 10 19.22921 23 40 26.59 +01 59 25.7 18.8   644 – Palomar Mountain/NEAT MPS 43931
2001 10 19.24983 23 40 26.03 +01 59 17.3 18.9   644 – Palomar Mountain/NEAT MPS 43931
2001 10 19.27136 23 40 25.45 +01 59 09.0 18.9   644 – Palomar Mountain/NEAT MPS 43931
2001 10 21.16112 23 39 39.30 +01 46 55.3 18.9   704 – Lincoln Laboratory ETS, New Mexico MPS 40554
2001 10 21.17748 23 39 38.89 +01 46 49.6 18.9   704 – Lincoln Laboratory ETS, New Mexico MPS 40554
2001 10 21.19384 23 39 38.50 +01 46 43.3 18.9   704 – Lincoln Laboratory ETS, New Mexico MPS 40554
2001 10 21.22660 23 39 37.67 +01 46 30.2 19.7   704 – Lincoln Laboratory ETS, New Mexico MPS 40554
2001 12 10.173260 23 45 06.071 -00 25 34.59 20.28 V 645 – Apache Point-Sloan Digital Sky Survey MPS 79921
2001 12 10.176732 23 45 06.191 -00 25 34.38 21.10   645 – Apache Point-Sloan Digital Sky Survey MPS 79921
2002 11 28.61607 05 11 49.77 +10 49 00.3 20.4   608 – Haleakala-AMOS MPS 67903
2002 11 28.62639 05 11 49.20 +10 48 58.1 20.4   608 – Haleakala-AMOS MPS 67903
2002 11 28.63678 05 11 48.72 +10 48 55.3 21.0   608 – Haleakala-AMOS MPS 67903
2002 12 01.29452 05 09 39.67 +10 40 07.7 19.6   704 – Lincoln Laboratory ETS, New Mexico MPS 67903
2002 12 01.30981 05 09 38.88 +10 40 06.2 20.0   704 – Lincoln Laboratory ETS, New Mexico MPS 67903
2002 12 01.32495 05 09 38.16 +10 40 02.0 19.7   704 – Lincoln Laboratory ETS, New Mexico MPS 67903
2002 12 14.22567 04 58 50.64 +10 05 43.4 19.2   704 – Lincoln Laboratory ETS, New Mexico MPS 67903
2002 12 14.24143 04 58 49.84 +10 05 42.3 19.6   704 – Lincoln Laboratory ETS, New Mexico MPS 67903
2002 12 14.25703 04 58 49.07 +10 05 39.3 19.5   704 – Lincoln Laboratory ETS, New Mexico MPS 67903
